Weather History for Livermore, CA

Change the Weather History Date:

Thursday, June 6, 2013

  Actual Average Record
Temperature  
Mean Temperature 70 °F 66 °F  
Max Temperature 86 °F 79 °F 103 °F (1978)
Min Temperature 53 °F 53 °F 40 °F (1939)
Degree Days  
Heating Degree Days 0 2  
Month to date heating degree days 0 12  
Since 1 June heating degree days 0 12  
Since 1 July heating degree days 2390 2760  
Cooling Degree Days 5 2  
Month to date cooling degree days 28 12  
Year to date cooling degree days 129 65  
Since 1 June cooling degree days 28 12  
Growing Degree Days 20 (Base 50)    
Moisture  
Dew Point 52 °F    
Average Humidity 63    
Maximum Humidity 93    
Minimum Humidity 32    
Precipitation  
Precipitation 0.00 in 0.00 in 0.39 in (1953)
Month to date precipitation 0.00 0.02  
Year to date precipitation 2.08 9.88  
Since 1 July precipitation 10.37 15.69  
Sea Level Pressure  
Sea Level Pressure 29.90 in    
Wind  
Wind Speed 9 mph (WNW)    
Max Wind Speed 16 mph    
Max Gust Speed 20 mph    
Visibility 10 miles    
Events      
T = Trace of Precipitation, MM = Missing Value Source: NWS Daily Summary

Daily Weather History Graph

Daily Weather History Graph

Search for Another Location

Airport:

Trip Planner

Search our weather history database for the weather conditions in past years. The results will help you decide how hot, cold, wet, or windy it might be!

Date:

Astronomy

Jun. 06, 2013 Rise Set
Actual Time 5:45 AM PDT 8:26 PM PDT
Civil Twilight 5:14 AM PDT 8:57 PM PDT
Nautical Twilight 4:36 AM PDT 9:36 PM PDT
Astronomical Twilight 3:52 AM PDT 10:19 PM PDT
Moon 4:28 AM PDT (6/6) 6:54 PM PDT (6/6)
Length of Visible Light 15h 42m
Length of Day
14h 40m
Waning Crescent, 3% of the Moon is Illuminated
Jun 6
Waning Crescent
Jun 8
New
Jun 16
First Quarter
Jun 23
Full
Jun 29
Last Quarter

Hourly Weather History & Observations

Time (PDT) Temp. Heat Index Dew Point Humidity Pressure Visibility Wind Dir Wind Speed Gust Speed Precip Events Conditions
12:53 AM 54.0 °F - 50.0 °F 86% 29.94 in 10.0 mi WNW 6.9 mph - N/A   Clear
1:53 AM 54.0 °F - 50.0 °F 86% 29.92 in 10.0 mi NW 8.1 mph - N/A   Clear
2:53 AM 54.0 °F - 50.0 °F 86% 29.92 in 10.0 mi WNW 6.9 mph - N/A   Partly Cloudy
3:29 AM 53.6 °F - 51.8 °F 94% 29.93 in 10.0 mi WNW 8.1 mph - N/A   Mostly Cloudy
3:53 AM 54.0 °F - 51.1 °F 90% 29.92 in 10.0 mi WNW 8.1 mph - N/A   Overcast
4:13 AM 53.6 °F - 51.8 °F 94% 29.92 in 10.0 mi NW 8.1 mph - N/A   Overcast
4:53 AM 55.0 °F - 51.1 °F 86% 29.93 in 10.0 mi WNW 10.4 mph - N/A   Overcast
5:53 AM 55.0 °F - 51.1 °F 86% 29.93 in 10.0 mi WNW 9.2 mph - N/A   Overcast
6:53 AM 54.0 °F - 51.1 °F 90% 29.94 in 10.0 mi NW 9.2 mph - N/A   Overcast
7:53 AM 55.9 °F - 51.1 °F 84% 29.94 in 10.0 mi Variable 3.5 mph - N/A   Overcast
8:45 AM 57.2 °F - 51.8 °F 82% 29.95 in 10.0 mi WNW 5.8 mph - N/A   Overcast
8:53 AM 59.0 °F - 51.1 °F 75% 29.95 in 10.0 mi West 5.8 mph - N/A   Mostly Cloudy
9:23 AM 60.8 °F - 51.8 °F 72% 29.95 in 10.0 mi WNW 5.8 mph - N/A   Scattered Clouds
9:53 AM 62.1 °F - 52.0 °F 70% 29.94 in 10.0 mi WNW 3.5 mph - N/A   Clear
10:53 AM 66.9 °F - 52.0 °F 59% 29.92 in 10.0 mi NW 6.9 mph - N/A   Clear
11:53 AM 72.0 °F - 52.0 °F 49% 29.91 in 10.0 mi Variable 4.6 mph - N/A   Clear
12:53 PM 77.0 °F - 53.1 °F 43% 29.89 in 10.0 mi NW 6.9 mph - N/A   Clear
1:53 PM 81.0 °F 80.4 °F 53.1 °F 38% 29.87 in 10.0 mi West 9.2 mph - N/A   Clear
2:53 PM 84.9 °F 83.2 °F 53.1 °F 33% 29.85 in 10.0 mi West 10.4 mph - N/A   Clear
3:53 PM 86.0 °F 84.0 °F 53.1 °F 32% 29.83 in 10.0 mi WNW 11.5 mph - N/A   Clear
4:53 PM 82.9 °F 81.8 °F 53.1 °F 36% 29.82 in 10.0 mi WNW 15.0 mph - N/A   Clear
5:53 PM 81.0 °F 80.5 °F 54.0 °F 39% 29.82 in 10.0 mi WNW 15.0 mph - N/A   Partly Cloudy
6:53 PM 77.0 °F - 53.1 °F 43% 29.83 in 10.0 mi WNW 12.7 mph - N/A   Partly Cloudy
7:53 PM 72.0 °F - 53.1 °F 51% 29.83 in 10.0 mi WNW 10.4 mph - N/A   Clear
8:53 PM 66.9 °F - 52.0 °F 59% 29.85 in 10.0 mi WNW 9.2 mph - N/A   Clear
9:53 PM 63.0 °F - 52.0 °F 67% 29.86 in 10.0 mi WNW 11.5 mph - N/A   Clear
10:53 PM 60.1 °F - 52.0 °F 75% 29.87 in 10.0 mi WNW 10.4 mph - N/A   Clear
11:53 PM 57.9 °F - 51.1 °F 78% 29.87 in 10.0 mi WNW 8.1 mph - N/A   Clear